Temperature
27 23 22 23 23 24 25 26 26 27 29 29 28 27 27 27 26 25 24 24 23 23 23 23 23 22 22 21 21 20 20 20 19 19 19 18 18 18 18 18 18 18 18 18
24 23 24 25 26 26 26 26 26 27 29 29 27 27 26 26 25 25 24 23 23 23 22 22 22 22 21 21 20 20 20 20 19 19 19 19 19 18 18 18 18 18 18 18
23 24 26 27 26 26 26 26 27 27 28 28 27 25 25 25 25 25 24 24 23 23 22 22 22 22 21 21 20 20 20 19 19 19 19 18 18 18 18 18 18 18 18 18
24 25 27 27 26 27 26 27 28 28 26 24 26 24 24 24 23 24 23 23 23 23 22 22 22 21 21 21 20 20 19 19 19 19 19 18 18 18 18 18 18 18 18 18
24 26 26 26 27 28 27 28 28 28 26 24 23 23 23 23 23 23 23 23 23 23 22 22 22 22 21 21 20 20 19 19 19 19 18 18 18 18 18 18 18 18 18 18
25 26 27 27 28 28 29 28 25 22 21 22 23 23 22 21 22 23 23 23 22 22 22 22 22 21 21 21 20 20 19 19 19 18 18 18 18 18 18 18 18 18 18 17
24 26 27 28 27 28 28 23 22 22 21 21 22 23 21 22 23 23 23 23 22 22 22 22 21 21 21 20 20 20 19 19 19 18 18 18 18 18 18 18 18 18 18 17
23 23 26 27 27 26 26 23 22 22 22 21 22 22 22 23 23 24 23 23 23 22 22 22 22 21 21 20 20 19 19 19 18 18 18 18 18 18 18 18 18 18 17 17
22 23 26 28 28 27 26 24 22 21 21 21 21 22 23 22 22 22 22 22 22 22 22 22 21 21 21 20 20 20 19 19 18 18 18 18 18 18 18 17 17 17 17 17
23 24 25 27 28 27 26 25 21 21 21 21 22 22 21 22 21 21 21 21 22 22 22 22 21 21 21 20 20 19 19 19 18 18 18 18 18 17 17 17 17 17 17 17
23 23 24 25 27 26 26 26 22 19 20 20 21 21 22 21 21 21 20 21 22 21 21 21 21 21 21 20 19 19 19 18 18 18 18 17 17 17 17 17 17 17 17 17
22 21 22 23 25 27 26 25 22 22 21 19 20 21 22 21 21 21 21 21 22 22 22 21 21 21 20 20 19 19 19 18 18 18 17 17 17 17 17 17 17 17 17 17
23 21 22 22 23 25 26 25 22 20 20 19 20 21 21 20 20 21 21 21 22 22 21 21 21 20 20 20 19 19 18 18 18 17 17 17 17 17 17 17 17 17 17 17
24 20 21 22 22 25 26 26 25 21 20 21 21 21 20 20 19 20 21 21 21 21 21 21 20 20 20 19 19 18 18 18 18 17 17 17 17 17 17 17 17 16 16 16
22 22 22 23 24 26 27 26 26 24 22 22 22 21 20 20 20 20 20 21 20 20 20 20 20 19 19 19 19 18 18 18 17 17 17 17 17 17 16 16 16 16 16 16
20 22 23 24 25 26 26 26 26 26 25 23 22 21 20 20 20 20 20 20 20 20 20 20 20 19 19 19 19 18 18 17 17 17 17 17 16 16 16 16 16 16 16 15
19 21 21 21 24 24 24 25 25 25 25 24 22 21 19 19 19 20 20 20 20 20 20 20 20 19 19 19 19 18 18 17 17 17 16 16 16 16 16 16 15 15 15 15
20 19 18 20 23 23 22 23 25 25 24 23 22 21 20 20 20 21 21 21 21 20 20 20 19 19 19 18 18 18 17 17 17 16 16 16 16 16 15 15 15 15 15 15
19 19 18 18 20 21 23 24 25 23 22 22 21 20 20 20 20 19 21 21 21 21 20 20 19 19 18 18 18 18 17 17 16 16 16 16 16 15 15 15 15 15 14 14
19 18 18 18 20 21 21 23 24 23 21 21 20 20 19 20 18 18 20 21 21 21 20 19 19 18 18 18 17 17 17 16 16 16 16 15 15 15 15 14 14 14 14 14
19 18 18 18 19 20 21 23 24 22 20 20 20 20 20 19 19 19 20 20 20 20 19 19 18 18 17 17 17 17 16 16 16 16 15 15 15 14 14 14 14 14 13 13
17 17 17 17 18 19 21 22 21 19 20 20 20 20 20 20 19 19 19 19 19 18 18 18 18 17 17 17 16 16 16 16 15 15 15 14 14 14 14 14 13 13 13 13
16 16 16 17 17 18 20 20 21 21 20 20 20 21 21 19 18 18 18 18 18 18 17 17 17 16 16 16 16 16 15 15 15 15 14 14 14 13 13 13 13 13 13 12
16 15 15 16 16 17 19 20 20 21 21 20 21 20 20 19 18 17 17 17 17 17 17 16 16 16 15 15 15 15 15 15 14 14 14 13 13 13 13 12 12 12 12 12
15 15 15 15 15 16 17 19 19 19 20 19 19 19 19 18 17 17 16 16 16 16 16 16 15 15 15 15 14 14 14 14 14 14 13 13 13 12 12 12 12 11 11 11
14 14 14 14 15 14 16 17 18 19 19 19 19 18 18 18 17 16 16 16 15 15 15 15 14 14 14 14 14 14 13 13 13 13 12 12 12 12 12 11 11 10 10 10
Wind_Speed
3 2 6 10 9 9 8 9 12 12 8 1 2 3 5 8 12 13 12 11 10 9 8 10 12 12 11 10 11 11 11 10 9 6 5 5 4 4 4 5 8 10 11 11
2 8 14 10 9 9 11 10 10 10 8 2 1 1 2 6 11 14 15 13 11 8 8 9 11 11 12 12 11 11 11 11 9 7 5 4 4 3 5 4 5 9 10 10
10 9 6 9 12 11 11 8 8 8 6 5 3 5 4 1 3 7 10 12 12 13 13 11 11 10 11 12 12 12 11 11 10 8 5 4 3 2 2 3 4 5 8 9
9 13 12 12 12 9 10 10 7 4 3 4 3 1 5 1 4 6 8 10 11 11 11 11 11 10 12 11 11 11 11 10 9 9 8 8 6 5 6 5 5 5 7 8
9 7 9 12 14 10 9 9 4 2 1 3 5 3 5 2 3 5 9 10 12 12 12 11 11 11 10 11 11 10 10 10 9 9 10 8 6 5 4 4 5 5 4 5
10 9 6 9 10 8 7 3 7 7 6 2 5 2 4 3 5 5 6 10 10 10 10 9 8 8 8 9 9 9 10 9 9 9 9 9 8 7 6 6 6 5 4 3
8 11 9 7 7 7 0 5 5 6 5 5 4 2 5 6 3 5 7 9 9 9 9 8 8 9 9 10 10 9 9 9 8 9 8 8 8 8 8 7 7 6 4 4
6 9 8 7 10 8 5 10 8 5 5 5 4 2 5 2 4 5 5 7 8 8 7 8 8 8 8 9 9 9 9 8 8 8 8 7 8 6 6 6 6 6 5 5
8 8 7 8 7 10 6 6 10 8 3 1 4 3 3 3 6 7 6 6 5 7 7 8 7 7 7 8 8 9 9 8 7 7 6 6 7 7 7 6 6 5 5 6
10 7 9 7 3 5 9 8 7 6 5 3 3 3 5 6 6 5 5 6 5 6 8 7 6 6 6 6 7 7 8 8 7 7 6 6 6 6 6 6 6 6 6 5
11 8 8 5 4 7 4 5 6 6 6 6 4 6 7 10 11 10 7 7 8 8 9 8 6 6 6 6 6 7 7 6 5 5 5 4 4 4 5 5 5 5 5 5
11 8 8 10 8 7 8 9 9 6 5 7 5 6 3 8 8 8 7 7 6 8 8 8 8 6 6 6 6 6 6 6 5 4 4 4 4 4 4 4 4 5 5 5
10 8 5 8 8 3 3 6 8 7 6 6 5 5 0 6 6 7 7 6 5 6 6 6 6 6 6 6 6 6 6 6 5 5 4 4 4 4 4 3 4 4 5 4
10 7 9 12 9 4 3 3 5 8 5 6 8 8 5 7 9 7 7 8 7 7 7 7 7 6 6 6 6 6 6 6 6 6 5 4 4 4 4 3 4 4 4 5
6 6 7 8 7 4 2 4 3 5 9 9 10 12 14 14 14 12 11 10 10 8 8 9 8 7 7 7 6 6 6 6 6 6 5 4 4 4 4 4 4 4 5 5
3 5 4 2 1 1 2 5 4 4 5 6 8 7 9 11 10 11 12 14 13 9 9 9 9 9 9 8 7 7 7 6 6 7 6 5 5 5 5 5 5 6 5 5
2 4 4 2 1 3 3 5 3 5 4 8 10 10 11 11 13 14 13 12 13 11 9 9 9 8 8 8 8 8 7 7 7 7 6 6 6 6 5 6 6 6 6 6
3 3 4 3 3 4 9 5 3 1 2 4 8 12 17 13 9 7 10 12 12 11 9 8 8 7 6 6 7 7 7 7 7 7 7 7 8 7 6 7 6 6 6 6
6 6 4 4 4 4 6 5 2 2 3 1 10 13 12 12 8 4 4 9 11 11 10 8 7 8 7 7 7 8 8 7 7 6 6 6 8 8 8 7 6 6 7 7
5 6 5 4 4 6 7 5 1 5 1 1 10 15 13 10 6 4 5 9 9 9 9 9 8 8 7 6 8 9 8 7 6 5 5 6 7 8 8 8 7 7 8 8
3 3 4 4 4 6 6 4 3 4 7 4 8 11 11 6 6 8 9 9 9 9 10 10 10 8 6 6 8 8 7 6 5 5 6 6 6 7 8 8 7 8 9 9
4 4 4 5 4 7 5 2 4 6 4 7 8 9 10 10 12 11 11 10 9 10 10 10 9 7 5 6 8 7 6 5 6 7 7 6 6 7 8 9 9 9 10 10
1 5 5 6 6 5 2 4 4 7 8 6 7 9 13 14 12 11 10 10 9 9 9 8 9 7 5 4 6 7 5 6 7 8 7 6 7 7 7 8 9 9 8 8
4 2 2 1 1 1 4 6 5 6 8 8 10 11 13 13 13 12 11 9 9 8 8 8 8 7 5 4 4 5 5 6 8 8 7 7 7 8 7 6 6 7 7 8
3 3 3 2 1 5 5 3 6 8 10 11 10 9 12 14 12 11 10 9 8 7 6 7 7 6 5 5 5 4 6 8 9 8 8 7 8 9 8 7 6 5 4 6
1 2 3 3 4 3 1 1 5 10 9 10 12 10 10 12 12 11 9 7 8 7 6 7 6 6 5 5 5 4 5 7 9 9 8 7 8 8 8 9 9 14 10 12
Wind_Direction
236 152 234 234 218 221 255 278 284 283 286 269 212 192 186 165 157 159 162 162 163 171 162 154 153 155 157 159 159 158 159 160 155 153 156 156 162 163 165 173 174 175 172 168
322 251 238 239 249 250 261 270 282 294 304 301 198 252 199 170 169 163 160 162 161 156 153 156 155 158 165 168 166 161 164 166 166 167 162 157 152 166 166 169 177 179 176 176
217 243 241 237 253 261 265 255 263 274 313 359 56 359 352 55 135 152 153 157 160 166 165 168 165 165 167 171 171 169 168 170 170 164 146 137 116 105 144 172 186 189 181 181
243 250 257 259 259 245 267 262 262 291 2 323 43 297 302 215 141 154 154 154 165 172 168 172 171 171 173 174 171 165 166 168 168 163 163 168 173 179 191 184 190 192 185 178
241 241 235 243 247 239 240 261 283 312 71 8 1 99 295 359 147 177 166 168 173 175 171 174 177 174 172 168 167 167 166 169 169 170 173 177 180 187 180 176 183 189 188 185
255 270 249 237 254 243 244 348 16 38 62 2 280 151 273 257 209 191 174 172 173 170 167 169 166 157 161 163 165 167 168 174 175 175 176 179 181 179 174 178 182 181 182 196
285 280 265 258 275 292 206 88 23 352 1 257 274 154 244 250 189 164 173 168 161 158 159 161 160 162 164 165 169 169 170 176 179 178 181 184 186 182 182 182 184 180 183 197
231 273 254 227 204 210 202 144 161 202 229 275 326 226 260 264 108 118 129 143 144 155 155 159 164 163 164 167 169 169 172 177 180 182 189 190 188 187 189 188 186 188 191 197
205 252 268 243 208 173 183 185 176 149 176 247 288 292 323 44 81 97 105 108 136 151 150 149 150 150 153 157 165 169 168 171 175 181 186 187 185 184 185 186 186 188 190 194
185 252 283 278 215 209 177 166 107 127 167 230 263 235 208 194 159 131 137 144 143 142 144 146 147 150 150 156 157 156 160 167 173 176 180 185 184 183 181 176 184 187 188 187
182 208 281 332 205 206 188 157 135 138 156 157 208 256 220 187 170 162 165 157 157 150 151 151 153 157 147 139 142 148 152 152 159 165 167 165 167 170 167 171 179 182 182 178
182 172 239 257 256 214 183 185 156 163 213 166 170 254 271 167 160 153 154 157 148 149 152 152 153 149 137 133 140 145 147 147 151 149 146 148 146 147 156 166 175 171 172 172
169 153 208 308 324 324 189 186 169 147 138 159 170 243 127 125 133 142 141 137 127 132 138 140 141 143 147 145 143 144 141 142 143 138 135 138 138 140 147 158 159 155 157 156
155 141 175 203 214 222 238 244 178 139 164 200 200 192 191 164 152 148 145 146 147 151 155 152 148 146 151 153 150 148 146 148 147 141 138 144 148 147 147 145 144 145 147 145
130 157 176 193 199 185 227 270 240 192 191 187 203 183 191 184 170 164 164 155 153 160 161 159 154 148 145 145 146 146 143 143 142 138 139 147 143 136 129 125 122 118 120 125
64 141 148 198 218 90 294 285 283 248 202 177 156 192 191 173 159 160 160 154 154 163 163 157 152 150 152 155 153 148 145 144 137 135 138 133 125 122 119 113 106 101 100 102
17 106 113 215 328 50 278 252 252 265 230 170 183 195 162 164 171 168 161 159 158 159 155 153 153 154 155 156 153 153 150 141 135 135 135 132 127 120 116 116 107 104 100 98
135 103 124 141 89 217 243 251 211 242 271 186 164 160 161 158 151 150 157 156 154 149 143 145 151 148 146 142 138 139 138 139 136 134 137 135 129 125 119 115 113 108 103 101
139 132 116 125 174 260 290 292 210 152 330 117 138 142 135 121 93 78 149 150 149 146 146 147 149 138 134 136 133 123 122 125 126 131 139 141 139 135 130 127 123 116 110 101
83 104 120 131 157 218 247 275 220 109 341 271 139 143 144 129 130 180 159 133 129 127 131 131 125 118 127 135 127 122 125 123 127 134 136 135 137 135 133 130 124 114 109 106
33 61 135 162 195 244 255 287 62 127 210 196 144 146 147 149 161 150 128 116 118 122 121 119 116 118 125 128 125 126 129 134 136 126 119 118 126 130 131 125 119 115 112 106
187 175 187 162 185 240 281 65 149 188 164 138 132 135 130 121 116 116 115 112 112 112 112 114 114 114 113 119 125 127 131 132 124 120 115 113 118 125 128 124 120 119 118 113
185 191 194 186 204 238 257 141 144 135 128 130 133 132 130 126 126 124 118 117 114 112 111 110 113 109 99 108 126 135 138 131 126 123 122 119 115 113 120 126 129 126 123 123
319 356 92 81 34 66 80 91 95 111 120 126 131 132 132 130 131 128 123 120 116 112 113 112 112 110 104 95 98 122 131 131 129 129 127 122 119 113 107 109 119 128 133 133
282 3 44 78 78 50 40 73 113 106 103 106 110 119 129 127 127 125 123 122 118 113 111 113 115 120 119 111 109 113 129 132 128 127 125 121 118 116 106 92 83 105 104 136
269 158 150 201 222 157 181 320 109 110 111 117 115 107 113 122 123 119 119 120 118 115 112 110 110 118 122 119 114 111 129 135 135 133 129 125 123 120 116 111 90 65 80 91
Height
1499 1505 1510 1506 1504 1506 1506 1508 1506 1494 1479 1482 1486 1487 1485 1485 1487 1489 1492 1495 1498 1501 1504 1506 1508 1512 1514 1517 1519 1520 1522 1525 1528 1530 1533 1536 1539 1542 1545 1548 1550 1552 1554 1556
1504 1507 1497 1495 1497 1500 1502 1506 1502 1491 1480 1482 1487 1488 1483 1484 1485 1486 1489 1493 1497 1500 1503 1505 1507 1510 1512 1514 1517 1519 1521 1524 1527 1529 1532 1535 1538 1540 1543 1546 1548 1550 1552 1554
1505 1496 1490 1494 1496 1500 1500 1501 1498 1494 1485 1482 1488 1497 1491 1486 1486 1488 1489 1491 1494 1497 1500 1503 1506 1508 1510 1512 1515 1517 1520 1522 1525 1528 1531 1534 1536 1539 1541 1543 1546 1548 1550 1552
1498 1489 1490 1492 1493 1493 1500 1487 1486 1487 1496 1506 1498 1517 1500 1492 1490 1489 1490 1492 1494 1497 1500 1502 1504 1506 1508 1510 1513 1515 1518 1521 1523 1526 1528 1531 1533 1535 1537 1540 1543 1546 1548 1550
1494 1485 1487 1490 1486 1484 1487 1479 1482 1485 1495 1507 1506 1514 1510 1496 1496 1492 1492 1493 1494 1497 1499 1501 1502 1505 1507 1509 1511 1514 1516 1519 1521 1524 1526 1529 1531 1533 1536 1539 1541 1543 1545 1548
1486 1480 1481 1480 1476 1476 1476 1481 1488 1497 1508 1524 1513 1515 1517 1504 1497 1493 1491 1492 1494 1496 1499 1501 1503 1505 1507 1509 1510 1512 1514 1517 1519 1522 1524 1527 1529 1531 1533 1535 1538 1540 1542 1544
1490 1480 1474 1474 1479 1476 1479 1501 1523 1525 1534 1529 1510 1512 1513 1493 1488 1489 1490 1491 1493 1495 1498 1500 1502 1504 1506 1507 1509 1511 1513 1515 1518 1520 1522 1524 1526 1528 1530 1532 1535 1537 1539 1541
1500 1496 1474 1469 1474 1481 1482 1497 1524 1535 1537 1529 1513 1514 1505 1487 1484 1487 1490 1491 1493 1495 1497 1500 1502 1504 1506 1507 1508 1509 1511 1513 1516 1518 1520 1522 1524 1526 1528 1530 1532 1534 1536 1538
1496 1492 1467 1463 1462 1470 1481 1490 1493 1514 1520 1528 1523 1510 1499 1489 1488 1489 1491 1492 1494 1496 1498 1501 1502 1504 1506 1507 1508 1509 1510 1512 1514 1516 1518 1520 1521 1523 1525 1527 1529 1531 1533 1535
1480 1488 1471 1461 1459 1462 1468 1476 1498 1513 1528 1534 1523 1515 1511 1496 1493 1491 1491 1492 1494 1496 1499 1501 1503 1504 1505 1507 1508 1509 1510 1511 1513 1515 1517 1518 1519 1520 1522 1524 1526 1528 1530 1532
1470 1485 1478 1469 1468 1471 1470 1477 1489 1506 1513 1528 1532 1520 1489 1488 1487 1488 1489 1490 1492 1495 1497 1500 1503 1504 1505 1506 1507 1508 1510 1511 1512 1514 1515 1516 1517 1518 1520 1521 1523 1525 1527 1529
1462 1478 1487 1476 1461 1455 1461 1470 1484 1503 1508 1513 1521 1514 1481 1482 1483 1486 1488 1490 1492 1494 1496 1499 1502 1504 1505 1506 1507 1508 1509 1510 1511 1512 1513 1514 1515 1516 1518 1519 1521 1523 1524 1526
1456 1475 1492 1488 1477 1463 1462 1464 1472 1483 1498 1509 1516 1507 1483 1482 1484 1486 1488 1489 1492 1495 1497 1499 1501 1503 1505 1506 1507 1508 1509 1509 1511 1511 1512 1513 1514 1515 1516 1518 1519 1521 1522 1524
1444 1466 1478 1488 1482 1467 1464 1462 1465 1480 1497 1500 1497 1494 1487 1484 1484 1485 1487 1489 1493 1495 1497 1499 1501 1503 1505 1506 1507 1508 1508 1509 1510 1510 1511 1512 1513 1513 1515 1516 1517 1519 1520 1521
1443 1460 1460 1461 1457 1456 1458 1459 1460 1468 1475 1484 1483 1483 1480 1478 1478 1481 1484 1487 1492 1494 1496 1498 1500 1502 1504 1506 1506 1507 1508 1508 1509 1510 1510 1511 1512 1513 1514 1515 1516 1517 1519 1519
1446 1455 1457 1458 1453 1454 1457 1455 1456 1459 1461 1467 1472 1476 1469 1472 1476 1479 1482 1485 1489 1492 1495 1497 1500 1502 1503 1504 1505 1506 1507 1508 1509 1509 1510 1511 1512 1512 1513 1514 1515 1516 1517 1518
1452 1456 1466 1470 1458 1458 1469 1458 1457 1457 1455 1460 1469 1468 1467 1473 1475 1477 1480 1483 1485 1489 1493 1496 1498 1501 1502 1503 1504 1505 1507 1508 1508 1509 1510 1511 1511 1512 1513 1514 1515 1516 1517 1518
1452 1459 1469 1472 1467 1480 1467 1449 1449 1452 1452 1451 1452 1456 1461 1465 1471 1476 1479 1481 1484 1487 1491 1495 1498 1500 1501 1503 1504 1505 1506 1507 1508 1508 1509 1510 1510 1512 1513 1514 1515 1516 1517 1519
1445 1456 1469 1478 1480 1473 1459 1448 1448 1453 1458 1452 1453 1457 1463 1467 1473 1478 1480 1481 1482 1485 1489 1493 1497 1498 1500 1502 1503 1504 1505 1506 1507 1508 1509 1510 1511 1511 1513 1514 1515 1516 1517 1518
1445 1451 1465 1474 1478 1481 1463 1446 1443 1450 1465 1455 1453 1457 1463 1466 1477 1480 1479 1480 1482 1485 1488 1491 1494 1497 1499 1501 1502 1503 1504 1505 1506 1507 1508 1509 1510 1511 1512 1513 1515 1516 1517 1518
1455 1459 1466 1472 1475 1468 1451 1444 1444 1464 1466 1455 1455 1457 1461 1464 1469 1474 1477 1479 1482 1485 1488 1490 1493 1496 1498 1499 1501 1502 1503 1504 1505 1507 1508 1508 1509 1510 1512 1513 1514 1515 1516 1518
1459 1464 1467 1470 1475 1472 1446 1444 1451 1454 1450 1452 1455 1458 1461 1464 1469 1473 1476 1479 1482 1485 1488 1490 1492 1495 1497 1498 1499 1501 1502 1503 1504 1505 1506 1507 1508 1510 1511 1512 1513 1515 1516 1517
1456 1458 1458 1460 1461 1450 1444 1444 1445 1447 1450 1453 1455 1459 1461 1465 1469 1473 1476 1480 1483 1485 1488 1490 1491 1493 1495 1496 1498 1499 1500 1501 1502 1504 1505 1506 1507 1508 1510 1511 1512 1514 1515 1517
1453 1450 1453 1455 1453 1449 1447 1446 1448 1449 1451 1454 1456 1459 1462 1465 1469 1473 1476 1480 1482 1485 1487 1489 1490 1492 1493 1495 1496 1498 1499 1500 1501 1502 1503 1505 1506 1507 1509 1511 1512 1513 1515 1516
1454 1452 1454 1456 1454 1452 1450 1450 1450 1452 1454 1457 1460 1462 1464 1466 1470 1473 1476 1480 1482 1484 1486 1487 1489 1490 1492 1493 1495 1496 1497 1498 1499 1501 1502 1503 1505 1507 1508 1510 1512 1514 1515 1517
1453 1454 1457 1458 1455 1454 1455 1454 1454 1454 1456 1458 1461 1464 1467 1468 1470 1474 1477 1480 1482 1484 1485 1487 1488 1490 1491 1492 1494 1495 1496 1497 1498 1499 1500 1502 1504 1506 1507 1509 1511 1514 1516 1518